Hourly Data Report for June 24, 2022

VICTORIA GONZALES CS
BRITISH COLUMBIA
Current Station Operator: ECCC - MSC

48°24'47.896" N
123°19'29.192" W
61.00 m
1018611
71200
WLM

Download Data

Hourly Data (June 2022)
Hourly Data Report for June 24, 2022
TIME
LST
Temp Definition
°C
Dew Point Definition
°C
Rel Hum Definition
%
Precip. Amount Definition
mm

Wind Dir Definition
10's deg

Wind Spd Definition
km/h
Visibility Definition
km
Stn Press Definition
kPa
Hmdx Definition


Wind Chill Definition


Weather Definition


00:00 11.2 8.4 83 0.0 26 10   101.34     LegendNANA
01:00 10.7 8.8 88 0.0 23 9   101.34     LegendNANA
02:00 10.4 9.1 92 0.0 24 12   101.37     LegendNANA
03:00 11.7 7.8 77 0.0 25 9   101.37     LegendNANA
04:00 12.5 6.4 66 0.0 36 14   101.39     LegendNANA
05:00 13.2 6.3 63 0.0 1 12   101.44     LegendNANA
06:00 11.9 8.4 79 0.0 30 6   101.47     LegendNANA
07:00 15.1 7.4 60 0.0 35 7   101.50     LegendNANA
08:00 16.8 9.1 61 0.0 1 15   101.53     LegendNANA
09:00 18.5 9.7 57 0.0 1 11   101.55     LegendNANA
10:00 17.8 10.4 62 0.0 0 1   101.54     LegendNANA
11:00 17.4 10.4 64 0.0 22 1   101.54     LegendNANA
12:00 22.0 10.7 48 0.0 6 3   101.53     LegendNANA
13:00 19.7 10.2 54 0.0 21 5   101.52     LegendNANA
14:00 18.1 10.5 61 0.0 19 4   101.48     LegendNANA
15:00 17.6 10.0 61 0.0 20 6   101.45     LegendNANA
16:00 19.3 9.5 53 0.0 18 1   101.42     LegendNANA
17:00 19.2 8.7 51 0.0 23 5   101.38     LegendNANA
18:00 19.9 8.1 46 0.0 24 6   101.35     LegendNANA
19:00 19.5 7.2 45 0.0 25 9   101.36     LegendNANA
20:00 18.9 7.3 47 0.0 26 9   101.34     LegendNANA
21:00 17.6 7.0 50 0.0 27 12   101.34     LegendNANA
22:00 17.2 7.7 53 0.0 28 9   101.33     LegendNANA
23:00 13.7 8.8 72 0.0 23 5   101.33     LegendNANA

Notes on Data Quality.

Legend

  • E = Estimated
  • M = Missing
  • NA = Not Available*
  • [empty] = Indicates an unobserved value
Date modified: